www.pogodaiklimat.ru

Погода и климат >> Архив погоды >> Россия >> Камчатский край >> Тиличики


ПОГОДА в Тиличиках

  • Прогноз погоды в Тиличиках
  • Монитор погоды в Тиличиках
  • Климат города

АРХИВ ПОГОДЫ в Тиличиках

Время (UTC), дата Ветер
(напр.,м/с)
 
Видим.   Явления Облачность Т
(С)
Тd
(С)
f
(%)
Тe
(С)
Тes
(С)
Комфортность P
(гПа)
Po
(гПа)
Тmin
(С)
Tmax
(С)
R
(мм)
R24
(мм)
S
(см)
06 14.04 СВ 6
{10}
50 км 9/0
[Ac trans Ci fib]
-3.3 -11.4 53 -10 -10 1008.3 997.0
12 14.04 В 2 20 км 3/0
[Ci fib]
-7.1 -12.8 64 -11 -11 1004.1 992.7
15 14.04 С 6-10
{10}
20 км ясно -7.6 -14.2 59 -16 -16 1001.2 989.8
18 14.04 С 5
{11}
50 км ясно -9.5 -16.1 59 -17 -17 999.1 987.7
21 14.04 С 8-13
{14}
50 км позёмок {метель} 10/0
[Ci fib]
-9.0 -15.2 61 -18 -18 996.9 985.5 -9.9 31
09 15.04 С 4
{17}
50 км 10/0
[Ac As Ci fib]
-6.8 -11.3 70 -13 -13 992.8 981.5 -5.6
18 15.04 СВ 6
{12}
50 км 9/8 600 м
[Sc Ac trans]
-4.8 -9.1 72 -12 -12 994.7 983.5
21 15.04 СВ 5-10
{11}
50 км 10/6 600 м
[Sc Ac trans]
-3.7 -7.8 73 -10 -10 994.9 983.7 -7.0 30
06 16.04 С 5
{11}
50 км 4/0
[Ac trans]
-2.3 -6.5 73 -9 -8 991.0 980.0
09 16.04 С 7-11
{12}
50 км 3/0
[Ac trans Ci fib]
-3.6 -7.6 74 -11 -11 989.8 978.7 -1.4
15 16.04 СЗ 5
{11}
20 км 10/0
[Ac trans]
-4.1 -7.9 75 -11 -11 987.5 976.4
18 16.04 С 4
{10}
20 км 4/0
[Ac trans]
-5.5 -8.8 78 -12 -12 987.3 976.2
09 17.04 СЗ 3
{12}
50 км {снег} 10/3 1000 м
[Sc Ac trans Ci fib]
-4.0 -8.2 73 -9 -9 993.6 982.5 -2.1 0.0
21 17.04 СЗ 8-11
{15}
50 км {ливн. осадки} 3/1 1000 м
[Sc Ac trans Ci fib]
-3.5 -9.3 64 -12 -11 998.6 987.4 -4.6 0.0 29
03 18.04 СЗ 4
{12}
50 км 4/0
[Ci fib]
-1.5 -7.9 62 -7 -2 1000.4 989.3
06 18.04 СЗ 5 50 км ясно -2.0 -7.6 65 -8 -7 1001.4 990.3
12 18.04 С 3 20 км ясно -5.0 -9.2 72 -10 -10 1003.0 991.7
15 18.04 С 3 20 км ясно -5.6 -9.5 74 -11 -11 1003.6 992.3
18 18.04 С 3 50 км ясно -5.8 -9.7 74 -11 -11 1004.0 992.7
03 19.04 С 3 50 км 10/4 1000 м
[Sc Ac trans]
-1.1 -6.5 67 -6 -4 1004.4 993.2
06 19.04 СЗ 4 50 км 10/6 1000 м
[Sc Ac trans]
-1.5 -6.1 71 -7 -7 1004.7 993.5
12 19.04 С 2 20 км 4/0
[Ci fib]
-3.8 -7.1 78 -8 -8 1005.2 993.9
15 19.04 С 1 20 км ясно -4.4 -6.8 83 -7 -7 1005.4 994.1
18 19.04 Ю 1 50 км 6/0
[Ci fib]
-4.7 -6.8 85 -7 -7 1005.6 994.3
03 20.04 С 3 50 км 10/0
[Ac trans Cs]
+1.9 -4.0 65 -2 +3 1005.7 994.7
06 20.04 СВ 4 50 км {ливн. осадки} 10/3 600 м
[Sc Ac trans Cs]
+1.1 -3.1 74 -4 -3 1006.2 995.1
09 20.04 С 5 20 км {ливн. осадки} 10/3 600 м
[Sc Ac trans Ci fib]
+0.1 -2.7 81 -6 -6 1006.9 995.8 +3.9 0.0
15 20.04 СВ 5 10 км слабый ливневой снег 10/10 300 м
[Cb cap]
+0.9 -1.1 86 -5 -5 1007.3 996.2
18 20.04 СВ 4 20 км {ливн. осадки} 9/4 600 м
[Sc Cc]
0.0 -2.1 86 -5 -5 1008.1 996.9
21 20.04 СВ 6 10 км слабый ливневой снег 10/8 300 м
[Cb cap Ac trans]
+1.7 -1.0 82 -4 -4 1009.1 998.0 0.0 0.3 26
03 21.04 В 5 10 км слабый ливневой снег 10/8 300 м
[Cb cap Ac trans]
+1.5 -0.9 84 -4 -4 1011.3 1000.2

 

Местоположение метеостанции Тиличики (Камчатский край, Россия): широта 60.43 долгота 166.00 высота над уровнем моря 89 м.

В архиве по умолчанию представлена погода в Тиличиках за последнюю неделю. Архивные данные за месяц целиком и за предыдущие месяцы, начиная с января 2011 года, Вы можете получить, выбрав интересующий диапазон дат из раскрывающегося списка и нажав кнопку "Ввод!".


*Определитесь, кто Вы:
робот инопланетянин человек

Внимание! Время в таблицах - всемирное. Для получения местного времени необходимо прибавить поправку, которая в Тиличиках равна 12 ч.

Смотрите также архив погоды в соседних городах и на ближайших метеорологических станциях:

Погода в Чемурнауте (Камчатский край, Россия) (167 км)
Погода в Апуке (Камчатский край, Россия) (198 км)
Погода в Оссоре (Камчатский край, Россия) (214 км)
Погода в Каменском (Камчатский край, Россия) (228 км)
Погода в Слаутном (Камчатский край, Россия) (322 км)
Погода на Мысе Озерном (Камчатский край, Россия) (348 км)
Погода в Палане (Камчатский край, Россия) (373 км)
Погода в Эвенске (Магаданская область, Россия) (400 км)
Погода в Верхне-Пенжино (Камчатский край, Россия) (432 км)
Погода в Усть-Воямполке (Камчатский край, Россия) (445 км)

Пояснения к столбцам:

Ветер - указаны скорость ветра в м/с - средняя за 10 мин, порывы в срок и между сроками (в фигурных скобках) и направление, откуда дует ветер: С - северный, СВ - северо-восточный, В - восточный, ЮВ - юго-восточный, Ю - южный, ЮЗ - юго-западный, З - западный, СЗ - северо-западный.
Видимость - горизонтальная дальность видимости в метрах или километрах. При видимости от 1 до 10 км при отсутствии осадков обычно наблюдается дымка, при ухудшении видимости до 1 км и менее - туман. В сухую погоду видимость может ухудшаться дымом, пылью или мглою.
Явления - указаны атмосферные явления, наблюдавшиеся в срок или в последний час перед сроком; фигурными скобками обозначены явления, наблюдавшиеся между сроками (за 1-3 часа до срока); квадратными скобками обозначены град или гололедные отложения с указанием их диаметра в мм.
Облачность - указаны через наклонную черту общая и нижняя облачность в баллах и высота нижней границы облаков в метрах; квадратными скобками обозначены формы облаков: Ci - перистые, Cs - перисто-слоистые, Cc - перисто-кучевые, Ac - высококучевые, As - высокослоистые, Sc - слоисто-кучевые, Ns - слоисто-дождевые, Cu - кучевые, Cb - кучево-дождевые. Подробнее классификацию облаков см. в Атласе облаков (PDF).
T - Температура воздуха - температура, измеренная на высоте 2 м над землей.
Td - Температура точки росы - температура, при понижении до которой содержащийся в воздухе водяной пар достигнет насыщения.
f - Относительная влажность воздуха - влажноcть воздуха, измеренная на высоте 2 м над землей.
Te - Эффективная температура - температура, которую ощущает одетый по сезону человек в тени. Характеристика душности погоды. При расчете учитывается влияние влажности воздуха и скорости ветра на теплоощущения человека.
Tes - Эффективная температура на солнце - температура, которую ощущает человек, с поправкой на солнечный нагрев. Характеристика знойности погоды. Зависит от высоты солнца над горизонтом, облачности и скорости ветра. Ночью, в пасмурную погоду, а также при ветре 12 м/с и более поправка равна нулю.
P - Атмосферное давление - приведенное к уровню моря атмосферное давление.
Po - Атмосферное давление - измеренное на уровне метеостанции атмосферное давление.
Tmin - Минимальная температура - минимум температуры воздуха на высоте 2 м над землей.
Tmax - Максимальная температура - максимум температуры воздуха на высоте 2 м над землей.
R - Количество осадков - Количество выпавших осадков за период времени, мм. При наведении курсора мыши на число - период времени, за который выпало указанное количество осадков.
R24 - Количество осадков - Количество выпавших осадков за 24 часа, мм.
S - Снежный покров - Высота снежного покрова, см. При наведении курсора мыши на число - состояние снежного покрова и степень покрытия местности в баллах.